Regional Weather Roundup
Issued by NWS Cleveland, OH

Home | Current Version | Previous Version | Text Only | Print | Product List | Glossary On
Versions: 1 2 3 4 5 6 7 8 9 10 11 12 13 14 15 16 17 18 19 20 21 22 23 24 25 26 27 28 29 30 31 32 33 34 35 36 37 38 39 40 41 42 43 44 45 46 47 48 49 50
000
ASUS41 KCLE 201912
RWRCLE
OHIO REGIONAL WEATHER ROUNDUP
NATIONAL WEATHER SERVICE WILMINGTON, OH
300 PM EDT THU JUL 20 2017

NOTE: "FAIR" INDICATES FEW OR NO CLOUDS BELOW 12,000 FEET WITH NO
SIGNIFICANT WEATHER AND/OR OBSTRUCTIONS TO VISIBILITY.

OHZ001>008-015>018-024>027-034-035-043-044-202000-
   NORTHWEST OHIO

CITY           SKY/WX    TMP DP  RH WIND       PRES   REMARKS
DEFIANCE       FAIR     N/A N/A N/A SW9       30.00S
FINDLAY        CLOUDY    84  69  60 SW8       29.99S
TOLEDO EXPRESS CLOUDY    84  71  65 W12       29.98F
TOLEDO EXEC    PTSUNNY   85  70  60 SW6       29.99F
LIMA           FAIR      82  71  69 W15       30.01R
$$

OHZ009>014-019>023-028>033-038-089-202000-
   NORTHEAST OHIO

CITY           SKY/WX    TMP DP  RH WIND       PRES   REMARKS
CLE-HOPKINS    PTSUNNY   86  69  56 W8        30.00F HX  90
CLE-LAKEFRONT  FAIR      82  69  64 W7        29.97F
CUY CO. ARPT   PTSUNNY   84  70  61 W23       30.00F
LORAIN-ELYRIA  FAIR      84  67  56 W9        30.00S
ASHTABULA      FAIR      86  70  58 W13G18    29.98F HX  90
AKRON-CANTON   PTSUNNY   89  68  49 W16G24    30.00F HX  93
WOOSTER        FAIR      86  70  58 W15G23    30.02S HX  90
MANSFIELD      PTSUNNY   85  69  58 W10       30.03F
YOUNGSTOWN     TSTM      76  71  85 W7        30.01R
$$

OHZ042-051>053-060>062-070>072-077>081-202000-
  SOUTHWEST OHIO

CITY           SKY/WX    TMP DP  RH WIND       PRES   REMARKS
CINC-COVINGTON CLOUDY    86  77  74 SW9       30.04F HX  97
CINC-LUNKEN    LGT RAIN  84  78  82 SW3       30.02F HX  95
HAMILTON       FAIR      83  78  85 NE3       30.03F HX  93
DAYTON         LGT RAIN  75  72  90 W8        30.01F
WRIGHT-PAT AFB LGT RAIN  76  76 100 VRB6      30.00F
DAYTON GENERAL FAIR      73  70  90 S5        30.04F
WILMINGTON     TSTM      71  71 100 S8        30.04F FOG
$$

OHZ036-037-039>041-045>050-054>059-063>069-073>076-082>088-202000-
  CENTRAL AND SOUTHEAST OHIO

CITY           SKY/WX    TMP DP  RH WIND       PRES   REMARKS
COLUMBUS       PTSUNNY   87  72  60 SW15      30.01F HX  93
OSU AIRPORT    FAIR      87  76  69 SW16      30.00F HX  97
BOLTON FIELD   SUNNY     82  75  78 SW15G21   30.01F
RICKENBACK AFB FAIR      85  76  74 SW10G18   30.01F HX  94
NEWARK         PTSUNNY   87  73  62 SW9       30.02F HX  94
MARION         FAIR      85  68  56 S9        30.01F
LANCASTER      PTSUNNY   84  77  79 SW13      30.04F HX  94
ZANESVILLE     LGT RAIN  84  72  67 SW8       30.03F
NEW PHILLY     FAIR      87  73  62 SW10      30.01F HX  94
$$



USA.gov is the U.S. government's official web portal to all federal, state and local government web resources and services.